Location: Unspecified
(35.7250°N, 0.0000°E)
Time: 22:24:17
(UTC+00:00)

Vanguard 1 - Pass Details

Date: 04 July 2019
Orbit: 653 x 3830 km, 34.3° (Epoch: 20 July)

Event Time Altitude Azimuth Distance (km) Brightness Sun altitude
Rises 22:14:59 0° 230° (SW) 7,155 14.4 -26.0°
Reaches altitude 10° 22:19:25 10° 227° (SW) 6,413 14.0 -26.4°
Maximum altitude 22:41:32 63° 152° (SSE) 4,076 12.7 -28.2°
Drops below altitude 10° 23:01:50 10° 78° (ENE) 5,985 14.0 -29.6°
Sets 23:05:45 0° 75° (ENE) 6,683 14.3 -29.8°
